This is the latest recevied weather packets stored in our database for station/object IU2PLZ-12. If no packets are shown the sender has not sent any weather packets the latest 10 day(s).
| Time | Temp. | Humidity | Pressure | Rain* | Wind** | Luminosity | Snow |
|---|---|---|---|---|---|---|---|
| 1777211995 | 33.89° C | 24% | 998.4 hPa | - | - | - | - |
| 1777211095 | 32.78° C | 25% | 998.6 hPa | - | - | - | - |
| 1777210195 | 33.89° C | 24% | 998.6 hPa | - | - | - | - |
| 1777209295 | 35.56° C | 25% | 998.7 hPa | - | - | - | - |
| 1777208394 | 34.44° C | 26% | 998.7 hPa | - | - | - | - |
| 1777207494 | 34.44° C | 27% | 998.9 hPa | - | - | - | - |
| 1777206594 | 33.33° C | 29% | 998.9 hPa | - | - | - | - |
| 1777205694 | 32.22° C | 30% | 999 hPa | - | - | - | - |
| 1777204794 | 32.22° C | 32% | 999.1 hPa | - | - | - | - |
| 1777203893 | 31.11° C | 33% | 999.2 hPa | - | - | - | - |
| 1777202993 | 30.56° C | 34% | 999.3 hPa | - | - | - | - |
| 1777202092 | 31.11° C | 34% | 999.4 hPa | - | - | - | - |
| 1777201192 | 30° C | 35% | 999.5 hPa | - | - | - | - |
| 1777200292 | 28.89° C | 36% | 999.7 hPa | - | - | - | - |
| 1777199391 | 29.44° C | 36% | 999.8 hPa | - | - | - | - |
| 1777198491 | 29.44° C | 35% | 999.8 hPa | - | - | - | - |
| 1777197591 | 30° C | 35% | 999.8 hPa | - | - | - | - |
| 1777196691 | 30.56° C | 33% | 999.8 hPa | - | - | - | - |
| 1777195791 | 30.56° C | 34% | 999.7 hPa | - | - | - | - |
| 1777194890 | 30.56° C | 33% | 999.9 hPa | - | - | - | - |
| 1777193990 | 31.11° C | 33% | 999.9 hPa | - | - | - | - |
| 1777193090 | 32.22° C | 32% | 999.8 hPa | - | - | - | - |
| 1777192221 | 32.22° C | 32% | 999.7 hPa | - | - | - | - |
| 1777192190 | 32.22° C | 32% | 999.7 hPa | - | - | - | - |
| 1777191289 | 31.67° C | 33% | 999.6 hPa | - | - | - | - |
* Rain since midnight (hover to see other rain measurements)
** Current wind speed in m/s (hover to see current wind gust speed)